BER3832 EDDN-EDAH

Flight info

Callsign BER3832
Flight time N/A
Altitude 39000
Route ERETO1G ERETO Z715 ABKIS L132 RENKI M725 UDAXI DCT
Aircraft A320/M-SDE3FGHIRWY/LB1

Departure

Time 2026-05-05 06:19
Airport Nuremberg Airport (EDDN)

Arrival

Time N/A
Airport Heringsdorf Airport (EDAH)
Time Latitude Longitude Altitude Speed Heading
2026-05-05 05:37 49.49515 11.07790 1024 ft 0 kts 188°
2026-05-05 05:59 49.49517 11.07790 1024 ft 1 kts 188°
2026-05-05 05:59 49.49533 11.07794 1026 ft 3 kts 188°
2026-05-05 05:59 49.49546 11.07797 1026 ft 2 kts 189°
2026-05-05 05:59 49.49565 11.07800 1027 ft 3 kts 161°
2026-05-05 06:00 49.49583 11.07776 1025 ft 3 kts 107°
2026-05-05 06:00 49.49586 11.07758 1027 ft 2 kts 99°
2026-05-05 06:00 49.49587 11.07751 1027 ft 0 kts 98°
2026-05-05 06:14 49.49579 11.07834 1027 ft 18 kts 98°
2026-05-05 06:15 49.49558 11.08064 1025 ft 23 kts 100°
2026-05-05 06:15 49.49535 11.08290 1029 ft 15 kts 90°
2026-05-05 06:15 49.49604 11.08370 1033 ft 12 kts 36°
2026-05-05 06:15 49.49612 11.08472 1035 ft 10 kts 99°
2026-05-05 06:16 49.49598 11.08611 1036 ft 16 kts 98°
2026-05-05 06:16 49.49581 11.08790 1037 ft 18 kts 99°
2026-05-05 06:16 49.49562 11.08990 1039 ft 20 kts 98°
2026-05-05 06:16 49.49541 11.09204 1043 ft 21 kts 100°
2026-05-05 06:17 49.49553 11.09408 1047 ft 20 kts 55°
2026-05-05 06:17 49.49622 11.09546 1051 ft 13 kts 46°
2026-05-05 06:17 49.49694 11.09556 1053 ft 10 kts 311°
2026-05-05 06:17 49.49702 11.09512 1052 ft 0 kts 278°
2026-05-05 06:18 49.49724 11.09290 1048 ft 63 kts 278°
2026-05-05 06:18 49.49830 11.08212 1033 ft 138 kts 278°
2026-05-05 06:18 49.49995 11.06539 1356 ft 169 kts 279°
2026-05-05 06:19 49.50173 11.04668 2014 ft 186 kts 279°
2026-05-05 06:19 49.50369 11.02585 2528 ft 208 kts 279°
2026-05-05 06:19 49.50589 11.00223 2989 ft 238 kts 279°
2026-05-05 06:19 49.50843 10.97577 3631 ft 263 kts 278°
2026-05-05 06:20 49.51210 10.94720 4619 ft 274 kts 289°
2026-05-05 06:20 49.52324 10.92382 5673 ft 280 kts 323°
2026-05-05 06:20 49.54162 10.91298 6793 ft 285 kts 352°
2026-05-05 06:20 49.56158 10.91288 7867 ft 290 kts
2026-05-05 06:21 49.58177 10.91668 8927 ft 295 kts
2026-05-05 06:21 49.60225 10.92108 9942 ft 301 kts
2026-05-05 06:21 49.62319 10.92468 10848 ft 307 kts
2026-05-05 06:21 49.64538 10.92727 11336 ft 330 kts
2026-05-05 06:22 49.66876 10.92902 12048 ft 341 kts
2026-05-05 06:22 49.69239 10.93558 12943 ft 349 kts 15°
2026-05-05 06:22 49.71487 10.95016 13811 ft 356 kts 29°
2026-05-05 06:22 49.73504 10.97266 14578 ft 361 kts 40°
2026-05-05 06:23 49.75419 10.99802 15370 ft 365 kts 41°
2026-05-05 06:23 49.77356 11.02381 16150 ft 370 kts 41°
2026-05-05 06:23 49.79321 11.05002 16920 ft 375 kts 41°
2026-05-05 06:23 49.81308 11.07650 17688 ft 380 kts 40°
2026-05-05 06:24 49.83209 11.10519 18421 ft 384 kts 50°
2026-05-05 06:24 49.84759 11.13909 19088 ft 388 kts 61°
2026-05-05 06:24 49.85958 11.17664 19773 ft 391 kts 65°
2026-05-05 06:24 49.87132 11.21494 20449 ft 395 kts 65°
2026-05-05 06:25 49.88299 11.25270 21104 ft 399 kts 65°
2026-05-05 06:25 49.89497 11.29145 21768 ft 403 kts 65°
2026-05-05 06:25 49.90715 11.33095 22431 ft 408 kts 65°
2026-05-05 06:25 49.91945 11.37073 23092 ft 412 kts 63°
2026-05-05 06:26 49.93423 11.40884 23689 ft 416 kts 53°
2026-05-05 06:26 49.95316 11.44304 24233 ft 419 kts 44°
2026-05-05 06:26 49.97390 11.47517 24780 ft 423 kts 44°
2026-05-05 06:26 49.99477 11.50762 25312 ft 427 kts 44°
2026-05-05 06:27 50.01581 11.54049 25840 ft 431 kts 44°
2026-05-05 06:27 50.05831 11.60730 26846 ft 438 kts 44°
2026-05-05 06:27 50.07977 11.64125 27336 ft 442 kts 44°
2026-05-05 06:28 50.10142 11.67635 27824 ft 445 kts 45°
2026-05-05 06:28 50.12268 11.71167 28295 ft 449 kts 45°
2026-05-05 06:28 50.14396 11.74750 28765 ft 452 kts 46°
2026-05-05 06:28 50.16532 11.78366 29222 ft 455 kts 45°
2026-05-05 06:29 50.18626 11.82104 29663 ft 460 kts 51°
2026-05-05 06:29 50.20409 11.86267 30083 ft 464 kts 58°
2026-05-05 06:29 50.22094 11.90573 30446 ft 467 kts 58°
2026-05-05 06:29 50.23799 11.94909 30806 ft 469 kts 57°
2026-05-05 06:30 50.25512 11.99254 31171 ft 471 kts 57°
2026-05-05 06:30 50.27249 12.03613 31530 ft 473 kts 56°
2026-05-05 06:30 50.29061 12.07912 32001 ft 472 kts 55°
2026-05-05 06:30 50.30919 12.12134 32511 ft 471 kts 54°
2026-05-05 06:31 50.32799 12.16317 33007 ft 470 kts 53°
2026-05-05 06:31 50.34633 12.20548 33499 ft 469 kts 58°
2026-05-05 06:31 50.36211 12.25020 33974 ft 469 kts 61°
2026-05-05 06:31 50.37747 12.29522 34379 ft 468 kts 62°
2026-05-05 06:32 50.39264 12.34028 34763 ft 468 kts 62°
2026-05-05 06:32 50.40776 12.38556 35130 ft 468 kts 62°
2026-05-05 06:32 50.42280 12.43079 35494 ft 468 kts 62°
2026-05-05 06:32 50.43786 12.47609 35859 ft 468 kts 62°
2026-05-05 06:33 50.44783 12.50602 36100 ft 468 kts 62°
2026-05-05 06:33 50.46796 12.56650 36573 ft 467 kts 62°
2026-05-05 06:33 50.47812 12.59708 36808 ft 467 kts 62°
2026-05-05 06:33 50.49311 12.64229 37132 ft 467 kts 62°
2026-05-05 06:34 50.50809 12.68755 37470 ft 467 kts 63°
2026-05-05 06:34 50.52308 12.73279 37801 ft 466 kts 62°
2026-05-05 06:34 50.53805 12.77801 38115 ft 466 kts 63°
2026-05-05 06:34 50.55297 12.82317 38441 ft 466 kts 63°
2026-05-05 06:35 50.56787 12.86844 38705 ft 466 kts 63°
2026-05-05 06:35 50.58274 12.91376 38840 ft 466 kts 63°
2026-05-05 06:35 50.59763 12.95916 38884 ft 467 kts 63°
2026-05-05 06:36 50.63459 13.04231 38882 ft 464 kts 43°
2026-05-05 06:36 50.68652 13.10132 38881 ft 459 kts 23°
2026-05-05 06:37 50.74383 13.14608 38882 ft 460 kts 24°
2026-05-05 06:37 50.80096 13.19159 38881 ft 460 kts 24°
2026-05-05 06:38 50.82954 13.21435 38879 ft 460 kts 24°
2026-05-05 06:38 50.84895 13.23250 38826 ft 462 kts 39°
2026-05-05 06:39 50.87139 13.26901 38722 ft 461 kts 38°
2026-05-05 06:39 50.89622 13.29499 38855 ft 456 kts 22°
2026-05-05 06:39 50.92576 13.31332 38878 ft 456 kts 14°
2026-05-05 06:39 50.95647 13.32432 38881 ft 449 kts
2026-05-05 06:40 50.98755 13.32679 38886 ft 447 kts 358°
2026-05-05 06:40 51.04955 13.34004 38886 ft 453 kts
2026-05-05 06:41 51.11082 13.36455 38891 ft 454 kts 10°
2026-05-05 06:41 51.17051 13.38558 38900 ft 453 kts
2026-05-05 06:42 51.23261 13.40173 38891 ft 452 kts
2026-05-05 06:42 51.29488 13.41658 38902 ft 453 kts
2026-05-05 06:43 51.35672 13.43249 38896 ft 453 kts
2026-05-05 06:43 51.41895 13.44955 38894 ft 454 kts
2026-05-05 06:44 51.48120 13.46687 38897 ft 454 kts
2026-05-05 06:44 51.54380 13.48501 38896 ft 455 kts
2026-05-05 06:45 51.60583 13.50558 38904 ft 455 kts
2026-05-05 06:45 51.66781 13.52678 38910 ft 455 kts
2026-05-05 06:46 51.72864 13.54714 38908 ft 455 kts
2026-05-05 06:46 51.79064 13.56757 38915 ft 455 kts
2026-05-05 06:47 51.85116 13.58756 38919 ft 455 kts
2026-05-05 06:47 51.91311 13.60841 38918 ft 455 kts
2026-05-05 06:48 51.97481 13.62982 38922 ft 455 kts
2026-05-05 06:48 52.00579 13.64064 38592 ft 458 kts
2026-05-05 06:48 52.03706 13.65153 37761 ft 458 kts
2026-05-05 06:48 52.06798 13.66233 37319 ft 452 kts
2026-05-05 06:49 52.09861 13.67302 36831 ft 447 kts
2026-05-05 06:49 52.12888 13.68359 36351 ft 443 kts
2026-05-05 06:49 52.15890 13.69403 35859 ft 440 kts
2026-05-05 06:49 52.18872 13.70437 35362 ft 437 kts
2026-05-05 06:50 52.20879 13.71130 35015 ft 435 kts
2026-05-05 06:50 52.22542 13.71709 34759 ft 434 kts
2026-05-05 06:50 52.25489 13.72739 34226 ft 433 kts
2026-05-05 06:50 52.28428 13.73766 33690 ft 431 kts
2026-05-05 06:51 52.31351 13.74787 33174 ft 429 kts
2026-05-05 06:51 52.34267 13.75807 32678 ft 427 kts
2026-05-05 06:51 52.37164 13.76821 32181 ft 425 kts
2026-05-05 06:51 52.40042 13.77831 31694 ft 422 kts
2026-05-05 06:52 52.42902 13.78838 31209 ft 420 kts
2026-05-05 06:52 52.45749 13.79841 30737 ft 417 kts
2026-05-05 06:52 52.48585 13.80841 30261 ft 416 kts
2026-05-05 06:52 52.51405 13.81841 29791 ft 413 kts
2026-05-05 06:53 52.54243 13.82849 29323 ft 410 kts
2026-05-05 06:53 52.57014 13.83836 28890 ft 406 kts
2026-05-05 06:53 52.59725 13.84804 28463 ft 402 kts
2026-05-05 06:53 52.62477 13.85788 28029 ft 398 kts
2026-05-05 06:54 52.65169 13.86749 27609 ft 394 kts
2026-05-05 06:54 52.67834 13.87698 27184 ft 390 kts
2026-05-05 06:54 52.70479 13.88641 26746 ft 387 kts
2026-05-05 06:54 52.73104 13.89577 26316 ft 384 kts
2026-05-05 06:55 52.75710 13.90508 25863 ft 382 kts
2026-05-05 06:55 52.78299 13.91434 25415 ft 380 kts
2026-05-05 06:55 52.80879 13.92358 24949 ft 379 kts
2026-05-05 06:55 52.83448 13.93279 24481 ft 378 kts
2026-05-05 06:56 52.86012 13.94201 24007 ft 377 kts
2026-05-05 06:56 52.88572 13.95123 23529 ft 376 kts
2026-05-05 06:56 52.91141 13.95805 22997 ft 371 kts 359°
2026-05-05 06:56 52.93686 13.95740 22541 ft 362 kts 348°
2026-05-05 06:57 52.96173 13.95259 22092 ft 358 kts 348°
2026-05-05 06:57 52.98641 13.94789 21653 ft 356 kts 348°
2026-05-05 06:57 53.01097 13.94326 21213 ft 355 kts 348°
2026-05-05 06:57 53.03542 13.93864 20782 ft 353 kts 348°
2026-05-05 06:58 53.05973 13.93399 20354 ft 350 kts 348°
2026-05-05 06:58 53.08385 13.92936 19926 ft 348 kts 348°
2026-05-05 06:58 53.10786 13.92474 19503 ft 347 kts 348°
2026-05-05 06:58 53.13178 13.92013 19085 ft 345 kts 348°
2026-05-05 06:59 53.15561 13.91555 18672 ft 344 kts 348°
2026-05-05 06:59 53.17927 13.91073 18247 ft 341 kts 345°
2026-05-05 06:59 53.20241 13.90282 17785 ft 338 kts 343°
2026-05-05 06:59 53.22532 13.89476 17371 ft 335 kts 343°
2026-05-05 07:00 53.24809 13.88677 16965 ft 333 kts 343°
2026-05-05 07:00 53.27071 13.87882 16563 ft 332 kts 343°
2026-05-05 07:00 53.29328 13.87089 16161 ft 330 kts 343°
2026-05-05 07:00 53.31572 13.86300 15769 ft 329 kts 344°
2026-05-05 07:01 53.33835 13.85505 15367 ft 327 kts 344°
2026-05-05 07:01 53.36055 13.84723 14977 ft 325 kts 344°
2026-05-05 07:01 53.38265 13.83941 14585 ft 324 kts 344°
2026-05-05 07:01 53.40468 13.83163 14202 ft 323 kts 344°
2026-05-05 07:02 53.42670 13.82386 13814 ft 323 kts 344°
2026-05-05 07:02 53.44866 13.81611 13382 ft 323 kts 345°
2026-05-05 07:02 53.47059 13.80837 12976 ft 321 kts 345°
2026-05-05 07:02 53.49240 13.80067 12579 ft 319 kts 345°
2026-05-05 07:03 53.51405 13.79298 12179 ft 317 kts 345°
2026-05-05 07:03 53.53559 13.78531 11775 ft 316 kts 345°
2026-05-05 07:03 53.55704 13.77769 11369 ft 314 kts 345°
2026-05-05 07:03 53.57696 13.77060 10976 ft 313 kts 345°
2026-05-05 07:04 53.59854 13.76288 10556 ft 311 kts 345°
2026-05-05 07:04 53.61838 13.75577 10160 ft 310 kts 346°
2026-05-05 07:04 53.63946 13.74821 9778 ft 307 kts 346°
2026-05-05 07:04 53.66007 13.74085 9482 ft 300 kts 346°
2026-05-05 07:05 53.68049 13.73356 9018 ft 299 kts 346°
2026-05-05 07:05 53.70075 13.72633 8511 ft 295 kts 347°
2026-05-05 07:05 53.72106 13.72476 7739 ft 294 kts
2026-05-05 07:05 53.73975 13.73750 7101 ft 292 kts 35°
2026-05-05 07:06 53.75339 13.76252 6655 ft 289 kts 61°
2026-05-05 07:06 53.75960 13.79443 6168 ft 285 kts 87°
2026-05-05 07:06 53.75933 13.82737 5697 ft 277 kts 94°
2026-05-05 07:06 53.75850 13.85970 4984 ft 272 kts 94°
2026-05-05 07:07 53.75764 13.89094 4470 ft 260 kts 94°
2026-05-05 07:07 53.75678 13.92129 3963 ft 259 kts 95°
2026-05-05 07:07 53.75589 13.95182 3452 ft 261 kts 94°
2026-05-05 07:07 53.75501 13.98188 3275 ft 248 kts 94°
2026-05-05 07:08 53.75446 14.00108 3232 ft 237 kts 94°
2026-05-05 07:08 53.75368 14.02811 3148 ft 225 kts 94°
2026-05-05 07:08 53.75295 14.05385 3051 ft 214 kts 94°
2026-05-05 07:08 53.75225 14.07838 2953 ft 204 kts 94°
2026-05-05 07:09 53.75156 14.10210 2902 ft 201 kts 94°
2026-05-05 07:09 53.75086 14.12575 2859 ft 201 kts 94°
2026-05-05 07:09 53.75016 14.14930 2816 ft 201 kts 94°
2026-05-05 07:09 53.74946 14.17288 2771 ft 201 kts 94°
2026-05-05 07:10 53.74875 14.19641 2724 ft 201 kts 94°
2026-05-05 07:10 53.74804 14.21990 2680 ft 200 kts 94°
2026-05-05 07:10 53.74733 14.24343 2588 ft 200 kts 94°
2026-05-05 07:10 53.74660 14.26688 2505 ft 200 kts 94°
2026-05-05 07:11 53.74585 14.29028 2477 ft 200 kts 94°